{"data":{"norad_id":66537,"intl_designator":"2025-265X","name":"STARLINK-35582","alt_names":[],"object_type":"PAYLOAD","status":"ACTIVE","operator":null,"country":"US","launch_date":"2025-11-19","launch_site_code":"AFETR","launch_vehicle":null,"mission":null,"orbit_class":"UNKNOWN","rcs_meters":null,"size_class":null,"mass_kg":null,"dimensions":null,"purposes":["comms"],"wikipedia_slug":null,"has_3d_model":false,"image_url":null,"decayed_at":null,"tle_current":{"epoch":"2026-05-24T20:50:02.577696Z","epoch_age_seconds":83105,"freshness":"FRESH","line1":"1 66537U 25265X   26144.86808539  .00007123  00000+0  26805-3 0  9997","line2":"2 66537  42.9912 207.7384 0002156  56.6095 303.4963 15.27589513 28769","mean_motion":15.27589513,"eccentricity":0.0002156,"inclination_deg":42.9912,"raan_deg":207.7384,"arg_perigee_deg":56.6095,"mean_anomaly_deg":303.4963,"bstar":0.00026805,"rev_number":2876,"period_min":94.266161671404,"perigee_km":481.5413452623,"apogee_km":484.49987642409,"semimajor_km":6861.1576108432,"source":"CELESTRAK","updated_at":"2026-05-25T13:38:21.253788Z"}}}